Kearney, NE

6:25 PM CDT on October 22, 2017 (GMT -0500)
Kearney Municipal

Weather History for KEAR - February, 2014

Change the Weather History Date:

Friday, February 21, 2014

  Actual Average Record
Temperature  
Mean Temperature 36 °F 30 °F  
Max Temperature 52 °F 41 °F 79 °F (2017)
Min Temperature 19 °F 18 °F -12 °F (1978)
Degree Days  
Heating Degree Days 29 35  
Month to date heating degree days 794  
Cooling Degree Days 0 0  
Month to date cooling degree days 0  
Moisture  
Dew Point 16 °F    
Average Humidity 53    
Maximum Humidity 84    
Minimum Humidity 21    
Precipitation  
Precipitation 0.00 in - 0.70 in (1897)
Sea Level Pressure  
Sea Level Pressure 29.81 in    
Wind  
Wind Speed 13 mph (West)    
Max Wind Speed 25 mph    
Max Gust Speed 37 mph    
Visibility 10 miles    
Events      
T = Trace of Precipitation, MM = Missing Value Source: NWS Daily Summary

Daily Weather History Graph

Daily Weather History Graph

Search for Another Location

Airport or City:

Trip Planner

Search our weather history database for the weather conditions in past years. The results will help you decide how hot, cold, wet, or windy it might be!

Date:

Astronomy

Feb. 21, 2014 Rise Set
Actual Time 7:21 AM CST 6:18 PM CST
Civil Twilight 6:53 AM CST 6:45 PM CST
Nautical Twilight 6:22 AM CST 7:17 PM CST
Astronomical Twilight 5:50 AM CST 7:49 PM CST
Moon 12:15 AM CST (2/21) 10:44 AM CST (2/21)
Length of Visible Light 11h 51m
Length of Day
10h 56m
Waning Gibbous, 60% of the Moon is Illuminated
Feb 21
Waning Gibbous
Feb 22
Last Quarter
Mar 1
New
Mar 8
First Quarter
Mar 16
Full

Hourly Weather History & Observations

Time (CST) Temp. Windchill Dew Point Humidity Pressure Visibility Wind Dir Wind Speed Gust Speed Precip Events Conditions
12:15 AM 28.4 °F 19.1 °F 15.8 °F 59% 29.84 in 10.0 mi West 10.4 mph - N/A   Clear
12:35 AM 28.4 °F 19.1 °F 15.8 °F 59% 29.83 in 10.0 mi West 10.4 mph - N/A   Clear
12:55 AM 28.4 °F 20.4 °F 15.8 °F 59% 29.82 in 10.0 mi West 8.1 mph - N/A   Clear
1:15 AM 28.4 °F 19.1 °F 15.8 °F 59% 29.83 in 10.0 mi West 10.4 mph - N/A   Clear
1:35 AM 26.6 °F 16.8 °F 15.8 °F 64% 29.83 in 10.0 mi WSW 10.4 mph - N/A   Clear
1:55 AM 26.6 °F 18.2 °F 15.8 °F 64% 29.82 in 10.0 mi WSW 8.1 mph - N/A   Clear
2:15 AM 26.6 °F 17.5 °F 15.8 °F 64% 29.82 in 10.0 mi WSW 9.2 mph - N/A   Clear
2:35 AM 26.6 °F 19.1 °F 15.8 °F 64% 29.82 in 10.0 mi WSW 6.9 mph - N/A   Clear
2:55 AM 24.8 °F 15.3 °F 15.8 °F 69% 29.82 in 10.0 mi WSW 9.2 mph - N/A   Clear
3:15 AM 24.8 °F 14.6 °F 15.8 °F 69% 29.81 in 10.0 mi SW 10.4 mph - N/A   Clear
3:35 AM 24.8 °F 15.3 °F 15.8 °F 69% 29.80 in 10.0 mi WSW 9.2 mph - N/A   Clear
3:55 AM 23.0 °F 12.4 °F 15.8 °F 74% 29.80 in 10.0 mi SW 10.4 mph - N/A   Clear
4:15 AM 23.0 °F 13.1 °F 15.8 °F 74% 29.80 in 10.0 mi SW 9.2 mph - N/A   Clear
4:35 AM 23.0 °F 13.1 °F 15.8 °F 74% 29.80 in 10.0 mi SW 9.2 mph - N/A   Clear
4:55 AM 23.0 °F 13.1 °F 15.8 °F 74% 29.80 in 10.0 mi SW 9.2 mph - N/A   Clear
5:15 AM 21.2 °F 11.7 °F 15.8 °F 80% 29.80 in 10.0 mi SW 8.1 mph - N/A   Clear
5:35 AM 21.2 °F 14.9 °F 15.8 °F 80% 29.79 in 10.0 mi WSW 4.6 mph - N/A   Clear
5:55 AM 21.2 °F 12.6 °F 17.6 °F 86% 29.79 in 10.0 mi WSW 6.9 mph - N/A   Clear
6:15 AM 26.6 °F 17.5 °F 15.8 °F 64% 29.79 in 10.0 mi West 9.2 mph - N/A   Clear
6:35 AM 26.6 °F 17.5 °F 15.8 °F 64% 29.79 in 10.0 mi WSW 9.2 mph - N/A   Clear
6:55 AM 26.6 °F 17.5 °F 15.8 °F 64% 29.78 in 10.0 mi WSW 9.2 mph - N/A   Clear
7:15 AM 26.6 °F 17.5 °F 15.8 °F 64% 29.79 in 10.0 mi WSW 9.2 mph - N/A   Clear
7:35 AM 26.6 °F 17.5 °F 15.8 °F 64% 29.79 in 10.0 mi West 9.2 mph - N/A   Clear
7:55 AM 26.6 °F 16.8 °F 15.8 °F 64% 29.79 in 10.0 mi West 10.4 mph - N/A   Clear
8:15 AM 28.4 °F 19.7 °F 17.6 °F 64% 29.79 in 10.0 mi West 9.2 mph - N/A   Scattered Clouds
8:35 AM 32.0 °F 23.6 °F 15.8 °F 51% 29.78 in 10.0 mi WSW 10.4 mph - N/A   Mostly Cloudy
8:55 AM 33.8 °F 23.9 °F 17.6 °F 52% 29.78 in 10.0 mi West 15.0 mph - N/A   Clear
9:15 AM 37.4 °F 28.5 °F 17.6 °F 45% 29.78 in 10.0 mi West 15.0 mph - N/A   Clear
9:35 AM 39.2 °F 29.8 °F 17.6 °F 42% 29.78 in 10.0 mi West 18.4 mph - N/A   Clear
9:55 AM 41.0 °F 31.9 °F 17.6 °F 39% 29.78 in 10.0 mi WNW 19.6 mph 25.3 mph N/A   Clear
10:15 AM 42.8 °F 34.3 °F 19.4 °F 39% 29.79 in 10.0 mi WNW 19.6 mph 27.6 mph N/A   Clear
10:35 AM 42.8 °F 34.0 °F 19.4 °F 39% 29.79 in 10.0 mi WNW 20.7 mph 28.8 mph N/A   Clear
10:55 AM 44.6 °F 36.1 °F 21.2 °F 39% 29.79 in 10.0 mi WNW 21.9 mph 28.8 mph N/A   Clear
11:15 AM 44.6 °F 35.9 °F 21.2 °F 39% 29.80 in 10.0 mi WNW 23.0 mph 27.6 mph N/A   Clear
11:35 AM 46.4 °F 39.0 °F 19.4 °F 34% 29.80 in 10.0 mi NW 19.6 mph 29.9 mph N/A   Clear
11:55 AM 46.4 °F 39.0 °F 19.4 °F 34% 29.80 in 10.0 mi NNW 19.6 mph - N/A   Clear
12:15 PM 46.4 °F 39.2 °F 21.2 °F 37% 29.80 in 10.0 mi WNW 18.4 mph 24.2 mph N/A   Clear
12:35 PM 48.2 °F - 19.4 °F 32% 29.79 in 10.0 mi WNW 20.7 mph 27.6 mph N/A   Clear
12:55 PM 50.0 °F - 17.6 °F 28% 29.79 in 10.0 mi WNW 19.6 mph 32.2 mph N/A   Clear
1:15 PM 50.0 °F - 17.6 °F 28% 29.78 in 10.0 mi WNW 24.2 mph 32.2 mph N/A   Clear
1:35 PM 50.0 °F - 15.8 °F 26% 29.78 in 10.0 mi NW 24.2 mph 35.7 mph N/A   Clear
1:55 PM 50.0 °F - 15.8 °F 26% 29.77 in 10.0 mi WNW 25.3 mph 34.5 mph N/A   Clear
2:15 PM 51.8 °F - 15.8 °F 24% 29.77 in 10.0 mi WNW 27.6 mph 34.5 mph N/A   Clear
2:35 PM 51.8 °F - 15.8 °F 24% 29.77 in 10.0 mi NW 24.2 mph 32.2 mph N/A   Clear
2:55 PM 51.8 °F - 14.0 °F 22% 29.78 in 10.0 mi NW 23.0 mph 36.8 mph N/A   Partly Cloudy
3:15 PM 51.8 °F - 12.2 °F 21% 29.78 in 10.0 mi WNW 20.7 mph 29.9 mph N/A   Partly Cloudy
3:35 PM 50.0 °F - 10.4 °F 20% 29.79 in 10.0 mi WNW 24.2 mph 33.4 mph N/A   Clear
3:55 PM 50.0 °F - 12.2 °F 22% 29.79 in 10.0 mi WNW 23.0 mph 32.2 mph N/A   Clear
4:15 PM 50.0 °F - 10.4 °F 20% 29.79 in 10.0 mi WNW 26.5 mph 31.1 mph N/A   Clear
4:35 PM 50.0 °F - 12.2 °F 22% 29.80 in 10.0 mi WNW 18.4 mph 28.8 mph N/A   Clear
4:55 PM 48.2 °F - 12.2 °F 24% 29.80 in 10.0 mi WNW 17.3 mph 26.5 mph N/A   Partly Cloudy
5:15 PM 48.2 °F - 12.2 °F 24% 29.80 in 10.0 mi WNW 20.7 mph 27.6 mph N/A   Partly Cloudy
5:35 PM 48.2 °F - 12.2 °F 24% 29.80 in 10.0 mi WNW 15.0 mph 25.3 mph N/A   Clear
5:55 PM 44.6 °F 39.7 °F 12.2 °F 27% 29.80 in 10.0 mi WNW 9.2 mph - N/A   Clear
6:15 PM 44.6 °F 40.2 °F 12.2 °F 27% 29.81 in 10.0 mi West 8.1 mph - N/A   Partly Cloudy
6:35 PM 42.8 °F 38.6 °F 14.0 °F 31% 29.82 in 10.0 mi West 6.9 mph - N/A   Partly Cloudy
6:55 PM 42.8 °F 38.6 °F 14.0 °F 31% 29.82 in 10.0 mi West 6.9 mph - N/A   Partly Cloudy
7:15 PM 42.8 °F 39.3 °F 14.0 °F 31% 29.82 in 10.0 mi West 5.8 mph - N/A   Scattered Clouds
7:35 PM 42.8 °F 39.3 °F 14.0 °F 31% 29.83 in 10.0 mi SW 5.8 mph - N/A   Partly Cloudy
7:55 PM 39.2 °F 35.9 °F 15.8 °F 39% 29.82 in 10.0 mi SW 4.6 mph - N/A   Scattered Clouds
8:15 PM 37.4 °F 34.9 °F 17.6 °F 45% 29.83 in 10.0 mi WSW 3.5 mph - N/A   Mostly Cloudy
8:35 PM 37.4 °F 30.8 °F 17.6 °F 45% 29.83 in 10.0 mi SW 9.2 mph - N/A   Mostly Cloudy
8:55 PM 39.2 °F 35.9 °F 17.6 °F 42% 29.82 in 10.0 mi SW 4.6 mph - N/A   Mostly Cloudy
9:15 PM 37.4 °F 32.8 °F 17.6 °F 45% 29.83 in 10.0 mi SW 5.8 mph - N/A   Overcast
9:35 PM 39.2 °F 34.2 °F 17.6 °F 42% 29.84 in 10.0 mi WSW 6.9 mph - N/A   Overcast
9:55 PM 42.8 °F 37.0 °F 17.6 °F 36% 29.85 in 10.0 mi WSW 10.4 mph - N/A   Overcast
10:15 PM 42.8 °F 35.8 °F 17.6 °F 36% 29.84 in 10.0 mi WSW 13.8 mph - N/A   Overcast
10:35 PM 44.6 °F 39.7 °F 17.6 °F 34% 29.85 in 10.0 mi WSW 9.2 mph - N/A   Overcast
10:55 PM 44.6 °F 39.7 °F 17.6 °F 34% 29.85 in 10.0 mi West 9.2 mph - N/A   Overcast
11:15 PM 42.8 °F 36.6 °F 19.4 °F 39% 29.84 in 10.0 mi WSW 11.5 mph - N/A   Overcast
11:35 PM 42.8 °F 37.5 °F 19.4 °F 39% 29.84 in 10.0 mi WSW 9.2 mph - N/A   Overcast
11:55 PM 42.8 °F 37.5 °F 19.4 °F 39% 29.84 in 10.0 mi WSW 9.2 mph - N/A   Overcast